Location: Bucquoy
(50.1391°N, 2.7097°E)
Time: 02:11:08
(UTC+00:00)

USA 281 - Pass Details

Date: 06 May 2021
Orbit: 1078 x 1081 km, 106.0° (Epoch: 18 June)

Event Time Altitude Azimuth Distance (km) Brightness Sun altitude
Exits shadow 01:09:01 34° 182° (S) 1,696 3.7 -20.8°
Maximum altitude 01:11:53 61° 248° (WSW) 1,217 3.2 -20.7°
Drops below altitude 10° 01:18:24 10° 328° (NNW) 2,931 5.9 -20.3°
Sets 01:20:59 0° 332° (NNW) 3,891 6.7 -20.1°
